Hourly Data Report for October 27, 2014

All times are specified in Local Standard Time (LST). Add 1 hour to adjust for Daylight Saving Time where and when it is observed.

IQALUIT CLIMATE
NUNAVUT

63°44'50.000" N
68°32'40.000" W
33.50 m
2402592
71321
XFB

Download Data

Hourly Data (October 2014)
Hourly Data Report for October 27, 2014
Temp Definition
°C
Dew Point Temp Definition
°C
Rel Hum Definition
%
Wind Dir Definition
10's deg

Wind Spd Definition
km/h
Visibility Definition
km
Stn Press Definition
kPa
Hmdx Definition


Wind Chill Definition


Weather Definition


TIME
00:00 -2.5 -6.5 74 13 29   101.46   -10 LegendNANA
01:00 -2.4 -6.4 74 13 30   101.46   -10 LegendNANA
02:00 -2.1 -6.1 74 14 32   101.47   -9 LegendNANA
03:00 -2.1 -6.0 74 14 33   101.48   -10 LegendNANA
04:00 -2.3 -6.2 74 14 34   101.47   -10 LegendNANA
05:00 -1.9 -5.9 74 14 34   101.51   -9 LegendNANA
06:00 -1.8 -5.8 74 14 34   101.54   -9 LegendNANA
07:00 -1.6 -5.5 75 14 38   101.56   -9 LegendNANA
08:00 -1.6 -5.3 76 14 38   101.56   -9 LegendNANA
09:00 -1.5 -5.1 76 14 39   101.57   -9 LegendNANA
10:00 -1.4 -4.9 77 14 40   101.53   -9 LegendNANA
11:00 -1.2 -4.7 78 14 41   101.53   -9 LegendNANA
12:00 -1.1 -4.4 78 14 41   101.52   -9 LegendNANA
13:00 -1.2 -4.4 79 14 41   101.49   -9 LegendNANA
14:00 -1.3 -4.1 81 14 38   101.46   -9 LegendNANA
15:00 -1.3 -4.0 82 14 40   101.47   -9 LegendNANA
16:00 -1.4 -3.5 85 15 41   101.47   -9 LegendNANA
17:00 -1.5 -3.5 86 14 41   101.47   -9 LegendNANA
18:00 -1.3 -3.6 85 14 39   101.46   -9 LegendNANA
19:00 -1.2 -3.5 84 14 42   101.45   -9 LegendNANA
20:00 -1.2 -3.4 85 14 39   101.42   -9 LegendNANA
21:00 -1.2 -3.0 88 15 41   101.39   -9 LegendNANA
22:00 -1.1 -2.7 89 14 40   101.32   -9 LegendNANA
23:00 -1.0 -2.8 88 15 40   101.30   -9 LegendNANA

Notes on Data Quality.

Legend

  • E = Estimated
  • M = Missing
  • NA = Not Available
  • ‡ = Partner data that is not subject to review by the National Climate Archives
Date modified: